EWG5KW EDDC-EDDH

Flight info

Callsign EWG5KW
Flight time 0h 42m
Altitude 28000
Route OSKAN3D/22 OSKAN M748 RARUP RARUP6A
Aircraft A321/M-SDE3FGHIRWY/LB1

Departure

Time 2026-04-20 18:05
Airport Dresden Airport (EDDC)

Arrival

Time 2026-04-20 18:47
Airport Hamburg Helmut Schmidt Airport (EDDH)
Time Latitude Longitude Altitude Speed Heading
2026-04-20 17:39 51.12598 13.76608 715 ft 0 kts 221°
2026-04-20 17:56 51.12612 13.76627 716 ft 4 kts 225°
2026-04-20 17:56 51.12630 13.76659 716 ft 4 kts 235°
2026-04-20 17:56 51.12642 13.76696 714 ft 4 kts 257°
2026-04-20 17:57 51.12641 13.76731 714 ft 2 kts 310°
2026-04-20 17:57 51.12637 13.76739 715 ft 0 kts 311°
2026-04-20 17:59 51.12638 13.76738 715 ft 0 kts 311°
2026-04-20 17:59 51.12653 13.76711 712 ft 6 kts 311°
2026-04-20 18:00 51.12689 13.76644 712 ft 9 kts 311°
2026-04-20 18:00 51.12731 13.76568 714 ft 10 kts 311°
2026-04-20 18:00 51.12786 13.76469 712 ft 12 kts 316°
2026-04-20 18:00 51.12863 13.76491 713 ft 16 kts 40°
2026-04-20 18:01 51.12954 13.76616 712 ft 18 kts 41°
2026-04-20 18:01 51.13046 13.76743 714 ft 17 kts 40°
2026-04-20 18:01 51.13138 13.76869 712 ft 18 kts 41°
2026-04-20 18:01 51.13240 13.77010 720 ft 23 kts 41°
2026-04-20 18:02 51.13373 13.77192 711 ft 26 kts 40°
2026-04-20 18:02 51.13510 13.77379 714 ft 26 kts 41°
2026-04-20 18:02 51.13647 13.77567 712 ft 26 kts 40°
2026-04-20 18:02 51.13787 13.77759 716 ft 27 kts 41°
2026-04-20 18:03 51.13928 13.77951 712 ft 27 kts 40°
2026-04-20 18:03 51.14070 13.78149 713 ft 27 kts 41°
2026-04-20 18:03 51.14205 13.78334 712 ft 19 kts 40°
2026-04-20 18:03 51.14297 13.78307 713 ft 15 kts 312°
2026-04-20 18:04 51.14366 13.78181 716 ft 15 kts 308°
2026-04-20 18:04 51.14334 13.78037 715 ft 21 kts 220°
2026-04-20 18:04 51.14032 13.77622 714 ft 94 kts 220°
2026-04-20 18:04 51.13369 13.76708 717 ft 155 kts 220°
2026-04-20 18:05 51.11662 13.74239 1976 ft 171 kts 226°
2026-04-20 18:05 51.10749 13.72884 2314 ft 190 kts 226°
2026-04-20 18:05 51.09737 13.71370 2559 ft 210 kts 225°
2026-04-20 18:06 51.08590 13.69733 2713 ft 233 kts 224°
2026-04-20 18:06 51.07304 13.67939 2910 ft 258 kts 223°
2026-04-20 18:06 51.05916 13.66018 3544 ft 267 kts 223°
2026-04-20 18:06 51.04530 13.64017 4265 ft 271 kts 231°
2026-04-20 18:07 51.03745 13.61354 4981 ft 270 kts 266°
2026-04-20 18:07 51.03967 13.58442 5680 ft 267 kts 291°
2026-04-20 18:07 51.04896 13.55928 6364 ft 266 kts 316°
2026-04-20 18:07 51.06309 13.54045 7042 ft 266 kts 330°
2026-04-20 18:08 51.07866 13.52429 7753 ft 269 kts 328°
2026-04-20 18:08 51.09417 13.50721 8459 ft 271 kts 333°
2026-04-20 18:08 51.11181 13.49738 9138 ft 269 kts 356°
2026-04-20 18:08 51.13030 13.49979 9824 ft 268 kts 15°
2026-04-20 18:09 51.14860 13.50691 10365 ft 277 kts 15°
2026-04-20 18:09 51.16815 13.51413 10503 ft 300 kts 10°
2026-04-20 18:09 51.18965 13.51238 10626 ft 324 kts 346°
2026-04-20 18:09 51.21054 13.49623 10909 ft 341 kts 333°
2026-04-20 18:10 51.23105 13.47675 11445 ft 345 kts 332°
2026-04-20 18:10 51.25175 13.45684 12029 ft 349 kts 332°
2026-04-20 18:10 51.27256 13.43677 12616 ft 351 kts 332°
2026-04-20 18:10 51.29368 13.41645 13158 ft 356 kts 333°
2026-04-20 18:11 51.31503 13.39596 13732 ft 360 kts 333°
2026-04-20 18:11 51.33661 13.37529 14010 ft 362 kts 333°
2026-04-20 18:11 51.35826 13.35458 14067 ft 362 kts 333°
2026-04-20 18:11 51.37992 13.33386 14073 ft 362 kts 333°
2026-04-20 18:12 51.40151 13.31319 14077 ft 362 kts 333°
2026-04-20 18:12 51.42323 13.29235 14254 ft 366 kts 333°
2026-04-20 18:12 51.44504 13.27136 14840 ft 367 kts 333°
2026-04-20 18:12 51.46698 13.25019 15379 ft 369 kts 333°
2026-04-20 18:13 51.48909 13.22885 15916 ft 372 kts 332°
2026-04-20 18:13 51.50383 13.21465 16267 ft 374 kts 332°
2026-04-20 18:13 51.52597 13.19245 16795 ft 377 kts 330°
2026-04-20 18:13 51.54777 13.16856 17315 ft 381 kts 328°
2026-04-20 18:14 51.56936 13.14361 17823 ft 384 kts 327°
2026-04-20 18:14 51.59095 13.11809 18288 ft 387 kts 326°
2026-04-20 18:14 51.61275 13.09230 18720 ft 389 kts 326°
2026-04-20 18:14 51.63466 13.06659 19161 ft 391 kts 326°
2026-04-20 18:15 51.65678 13.04087 19626 ft 393 kts 327°
2026-04-20 18:15 51.67909 13.01511 20069 ft 394 kts 327°
2026-04-20 18:15 51.70148 12.98936 20516 ft 396 kts 327°
2026-04-20 18:15 51.72404 12.96348 20963 ft 398 kts 327°
2026-04-20 18:16 51.74662 12.93753 21395 ft 400 kts 326°
2026-04-20 18:16 51.76928 12.91142 21841 ft 401 kts 326°
2026-04-20 18:16 51.79203 12.88511 22270 ft 403 kts 326°
2026-04-20 18:16 51.81485 12.85861 22706 ft 405 kts 326°
2026-04-20 18:17 51.83779 12.83196 23109 ft 407 kts 326°
2026-04-20 18:17 51.86086 12.80515 23514 ft 410 kts 326°
2026-04-20 18:17 51.88407 12.77816 23879 ft 412 kts 326°
2026-04-20 18:17 51.90710 12.75134 24189 ft 414 kts 326°
2026-04-20 18:18 51.93054 12.72397 24513 ft 417 kts 325°
2026-04-20 18:18 51.95416 12.69633 24830 ft 419 kts 326°
2026-04-20 18:18 51.97786 12.66858 25150 ft 421 kts 326°
2026-04-20 18:18 52.00164 12.64070 25479 ft 423 kts 326°
2026-04-20 18:19 52.02559 12.61255 25787 ft 426 kts 326°
2026-04-20 18:19 52.04959 12.58431 26102 ft 428 kts 326°
2026-04-20 18:19 52.07383 12.55578 26414 ft 430 kts 326°
2026-04-20 18:19 52.09810 12.52721 26734 ft 432 kts 326°
2026-04-20 18:20 52.12263 12.49830 26953 ft 436 kts 326°
2026-04-20 18:20 52.14724 12.46925 27227 ft 439 kts 326°
2026-04-20 18:20 52.17201 12.43998 27525 ft 441 kts 326°
2026-04-20 18:20 52.19701 12.41038 27852 ft 443 kts 326°
2026-04-20 18:21 52.22188 12.38085 28062 ft 445 kts 326°
2026-04-20 18:21 52.24683 12.35115 28122 ft 447 kts 326°
2026-04-20 18:21 52.29791 12.29037 28117 ft 461 kts 326°
2026-04-20 18:22 52.35023 12.22794 28119 ft 470 kts 326°
2026-04-20 18:22 52.40307 12.16459 28126 ft 471 kts 326°
2026-04-20 18:23 52.45591 12.10087 28128 ft 471 kts 326°
2026-04-20 18:23 52.50846 12.03753 28122 ft 471 kts 326°
2026-04-20 18:24 52.56128 11.97388 28126 ft 471 kts 326°
2026-04-20 18:24 52.61420 11.90978 28132 ft 472 kts 326°
2026-04-20 18:25 52.66701 11.84544 28136 ft 472 kts 326°
2026-04-20 18:25 52.69343 11.81322 27738 ft 471 kts 326°
2026-04-20 18:25 52.71986 11.78094 27328 ft 472 kts 326°
2026-04-20 18:26 52.74622 11.74869 26930 ft 472 kts 326°
2026-04-20 18:26 52.77266 11.71629 26547 ft 474 kts 326°
2026-04-20 18:26 52.79911 11.68381 26166 ft 475 kts 326°
2026-04-20 18:26 52.82564 11.65120 25763 ft 476 kts 326°
2026-04-20 18:27 52.85223 11.61849 25386 ft 477 kts 326°
2026-04-20 18:27 52.87895 11.58559 25014 ft 478 kts 326°
2026-04-20 18:27 52.90561 11.55277 24658 ft 479 kts 326°
2026-04-20 18:27 52.93242 11.51972 24296 ft 480 kts 326°
2026-04-20 18:28 52.95916 11.48667 23941 ft 481 kts 326°
2026-04-20 18:28 52.98592 11.45353 23523 ft 479 kts 326°
2026-04-20 18:28 53.01233 11.42070 22896 ft 470 kts 326°
2026-04-20 18:28 53.03839 11.38818 22302 ft 464 kts 326°
2026-04-20 18:29 53.06349 11.35681 21742 ft 452 kts 326°
2026-04-20 18:29 53.08832 11.32571 21186 ft 441 kts 326°
2026-04-20 18:29 53.11253 11.29539 20643 ft 431 kts 326°
2026-04-20 18:29 53.13640 11.26596 20100 ft 422 kts 327°
2026-04-20 18:30 53.16026 11.23789 19577 ft 417 kts 328°
2026-04-20 18:30 53.18407 11.21076 19060 ft 414 kts 328°
2026-04-20 18:30 53.20781 11.18400 18553 ft 411 kts 328°
2026-04-20 18:30 53.23139 11.15736 18058 ft 408 kts 328°
2026-04-20 18:31 53.25484 11.13067 17556 ft 406 kts 328°
2026-04-20 18:31 53.27770 11.10317 17076 ft 405 kts 321°
2026-04-20 18:31 53.29625 11.06765 16601 ft 408 kts 304°
2026-04-20 18:31 53.30777 11.02439 16128 ft 410 kts 287°
2026-04-20 18:32 53.31299 10.97746 15656 ft 410 kts 281°
2026-04-20 18:32 53.31748 10.93049 15214 ft 406 kts 281°
2026-04-20 18:32 53.32181 10.88442 14764 ft 397 kts 281°
2026-04-20 18:32 53.32603 10.83929 14318 ft 388 kts 281°
2026-04-20 18:33 53.33016 10.79505 13855 ft 381 kts 280°
2026-04-20 18:33 53.33420 10.75177 13364 ft 374 kts 281°
2026-04-20 18:33 53.33818 10.70917 12886 ft 367 kts 281°
2026-04-20 18:33 53.34210 10.66729 12409 ft 361 kts 281°
2026-04-20 18:34 53.34596 10.62611 11938 ft 356 kts 281°
2026-04-20 18:34 53.34973 10.58536 11475 ft 351 kts 280°
2026-04-20 18:34 53.35340 10.54540 11105 ft 344 kts 280°
2026-04-20 18:34 53.35700 10.50627 10730 ft 335 kts 280°
2026-04-20 18:35 53.36040 10.46887 10356 ft 315 kts 280°
2026-04-20 18:35 53.36365 10.43313 9977 ft 307 kts 281°
2026-04-20 18:35 53.36691 10.39784 9575 ft 307 kts 280°
2026-04-20 18:35 53.37015 10.36260 9173 ft 305 kts 280°
2026-04-20 18:36 53.37332 10.32771 8776 ft 300 kts 280°
2026-04-20 18:36 53.37641 10.29365 8376 ft 291 kts 280°
2026-04-20 18:36 53.37939 10.26056 7991 ft 286 kts 280°
2026-04-20 18:36 53.38235 10.22766 7606 ft 285 kts 280°
2026-04-20 18:37 53.38529 10.19484 7226 ft 284 kts 279°
2026-04-20 18:37 53.38820 10.16210 6852 ft 283 kts 279°
2026-04-20 18:37 53.39107 10.12951 6478 ft 282 kts 279°
2026-04-20 18:37 53.39389 10.09741 6217 ft 276 kts 279°
2026-04-20 18:38 53.39668 10.06587 5954 ft 271 kts 279°
2026-04-20 18:38 53.39942 10.03481 5690 ft 266 kts 279°
2026-04-20 18:38 53.40203 10.00483 5432 ft 261 kts 280°
2026-04-20 18:38 53.40460 9.97503 5183 ft 256 kts 280°
2026-04-20 18:39 53.40713 9.94588 4944 ft 250 kts 280°
2026-04-20 18:39 53.40961 9.91732 4689 ft 247 kts 280°
2026-04-20 18:39 53.41209 9.88878 4424 ft 247 kts 279°
2026-04-20 18:39 53.41454 9.86050 4163 ft 245 kts 280°
2026-04-20 18:40 53.41700 9.83218 4005 ft 246 kts 280°
2026-04-20 18:40 53.41954 9.80384 3992 ft 246 kts 280°
2026-04-20 18:40 53.42212 9.77555 3995 ft 245 kts 280°
2026-04-20 18:40 53.42468 9.74732 3995 ft 245 kts 280°
2026-04-20 18:41 53.42883 9.71971 3986 ft 242 kts 300°
2026-04-20 18:41 53.43962 9.69899 3719 ft 234 kts 332°
2026-04-20 18:41 53.45454 9.69115 3337 ft 221 kts
2026-04-20 18:41 53.46915 9.69620 3028 ft 210 kts 22°
2026-04-20 18:42 53.48237 9.70364 3010 ft 189 kts 24°
2026-04-20 18:42 53.49330 9.71356 3033 ft 172 kts 44°
2026-04-20 18:42 53.50118 9.72829 3020 ft 168 kts 53°
2026-04-20 18:42 53.50864 9.74324 3012 ft 167 kts 53°
2026-04-20 18:43 53.51606 9.75813 3011 ft 166 kts 53°
2026-04-20 18:43 53.52339 9.77282 2988 ft 166 kts 53°
2026-04-20 18:43 53.53081 9.78771 2849 ft 166 kts 53°
2026-04-20 18:43 53.53816 9.80245 2641 ft 164 kts 53°
2026-04-20 18:44 53.54522 9.81660 2433 ft 149 kts 53°
2026-04-20 18:44 53.55168 9.82957 2234 ft 141 kts 53°
2026-04-20 18:44 53.55790 9.84207 2045 ft 138 kts 53°
2026-04-20 18:44 53.56403 9.85441 1855 ft 137 kts 53°
2026-04-20 18:45 53.57015 9.86673 1655 ft 137 kts 52°
2026-04-20 18:45 53.57626 9.87903 1453 ft 137 kts 52°
2026-04-20 18:45 53.58236 9.89134 1253 ft 136 kts 51°
2026-04-20 18:45 53.58846 9.90367 1043 ft 136 kts 51°
2026-04-20 18:46 53.59456 9.91593 841 ft 136 kts 50°
2026-04-20 18:46 53.60061 9.92819 676 ft 135 kts 49°
2026-04-20 18:46 53.60680 9.94072 481 ft 137 kts 50°
2026-04-20 18:46 53.61294 9.95304 290 ft 139 kts 51°
2026-04-20 18:47 53.61913 9.96548 109 ft 138 kts 50°
2026-04-20 18:47 53.62487 9.97700 41 ft 115 kts 50°
2026-04-20 18:47 53.62884 9.98511 44 ft 66 kts 50°
2026-04-20 18:47 53.63070 9.98904 46 ft 29 kts 63°
2026-04-20 18:48 53.63090 9.99156 46 ft 13 kts 96°
2026-04-20 18:48 53.63085 9.99237 47 ft 1 kts 95°
2026-04-20 18:48 53.63085 9.99242 47 ft 1 kts 95°
2026-04-20 18:49 53.63083 9.99277 47 ft 5 kts 94°
2026-04-20 18:49 53.63082 9.99341 47 ft 6 kts 83°
2026-04-20 18:49 53.63107 9.99424 45 ft 9 kts 56°
2026-04-20 18:49 53.63149 9.99524 46 ft 11 kts 51°
2026-04-20 18:50 53.63209 9.99644 48 ft 7 kts 49°
2026-04-20 18:50 53.63217 9.99661 48 ft 4 kts 52°
2026-04-20 18:50 53.63213 9.99763 48 ft 12 kts 135°
2026-04-20 18:50 53.63117 9.99852 48 ft 18 kts 153°
2026-04-20 18:51 53.63002 9.99953 48 ft 19 kts 153°
2026-04-20 18:51 53.62951 10.00077 48 ft 14 kts 82°
2026-04-20 18:51 53.62938 10.00234 46 ft 10 kts 108°
2026-04-20 18:51 53.62927 10.00288 48 ft 0 kts 109°